Regional Weather Roundup
Issued by NWS

Home | Current Version | Previous Version | Graphics & Text | Print | Product List | Glossary On
Versions: 1 2 3 4 5 6 7 8 9 10 11 12 13 14 15 16 17 18 19 20 21 22 23 24 25 26 27 28 29 30 31 32 33 34 35 36 37 38 39 40 41 42 43 44 45 46 47 48 49 50
000
ASUS45 KABQ 161901
RWRNM
NEW MEXICO REGIONAL WEATHER ROUNDUP
NATIONAL WEATHER SERVICE ALBUQUERQUE NM
100 PM MDT WED AUG 16 2017

NOTE: "FAIR" MEANS FEW OR NO CLOUDS BELOW 12,000 FEET AGL WITH NO
       SIGNIFICANT WEATHER OR OBSTRUCTIONS TO VISION.

      THIS PRODUCT IS RELEASED AS TWO VERSIONS.  ONE VERSION NEAR
      THE TOP OF THE HOUR CONTAINING PRELIMINARY DATA FROM ALBUQUERQUE
      AND OTHER STATIONS.  A FINAL VERSION WITH ADDITIONAL DATA IS
      ISSUED ABOUT 10 MINUTES AFTER THE HOUR.

NMZ501-503-504-510>518-162000-
NORTHWEST PLATEAU/NORTHCENTRAL MOUNTAINS

CITY           SKY/WX    TMP DP  RH WIND       PRES   REMARKS
FARMINGTON     FAIR      81  27  14 SW9       30.14F
LOS ALAMOS     FAIR      73  31  21 NE5       30.26F
SANTA FE       FAIR      77  33  20 VRB7G18   30.20F
TAOS           FAIR      73  33  23 VRB6      30.26F
ANGEL FIRE     FAIR      66  37  34 W9G18     30.33S

$$
NMZ402-403-502-505>509-162000-
WESTCENTRAL MOUNTAINS/SOUTHWEST MOUNTAINS

CITY           SKY/WX    TMP DP  RH WIND       PRES   REMARKS
GALLUP         FAIR      79  30  16 SW14G23   30.24F
GRANTS         FAIR      77  26  15 NW9G17    30.24F
SILVER CITY    FAIR      79  42  26 SW3       30.20F

$$
NMZ407-409-411-412-162000-
SOUTHERN DESERTS

CITY           SKY/WX    TMP DP  RH WIND       PRES   REMARKS
DEMING         FAIR      88  47  24 MISG      30.12F
LAS CRUCES     PTSUNNY   88  45  22 S5        30.12F
HOLLOMAN AFB   FAIR      93  44  18 W7        30.10F
ALAMOGORDO     FAIR      88  41  19 NW6       30.10S
T OR C         FAIR      87  41  19 SW7       30.12F

$$
NMZ519>523-162000-
CENTRAL VALLEYS/CENTRAL HIGHLANDS

CITY           SKY/WX    TMP DP  RH WIND       PRES   REMARKS
ALBUQUERQUE    FAIR      82  31  15 VRB5      30.16F
DOUBLE EAGLE   MOSUNNY   81  34  18 SW7       30.20S
CLINES CORNERS FAIR      76  34  21 W13G29    30.25S
BELEN          NOT AVBL
SOCORRO        FAIR      85  37  18 CALM      30.13S

$$
NMZ524>526-539-540-162000-
SOUTHCENTRAL MOUNTAINS

CITY           SKY/WX    TMP DP  RH WIND       PRES   REMARKS
RUIDOSO        FAIR      77  39  25 W14G22    30.28S

$$
NMZ527>531-162000-
NORTHEAST HIGHLANDS/NORTHEAST PLAINS

CITY           SKY/WX    TMP DP  RH WIND       PRES   REMARKS
LAS VEGAS      FAIR      75  36  24 VRB5      30.22F
RATON          FAIR      74  47  38 VRB5      30.17F
CLAYTON        FAIR      76  53  44 VRB3      30.12F

$$
NMZ532>537-162000-
EASTCENTRAL PLAINS

CITY           SKY/WX    TMP DP  RH WIND       PRES   REMARKS
SANTA ROSA     FAIR      85  37  17 W7        30.08S
TUCUMCARI      FAIR      85  48  27 VRB3      30.05F
CANNON AFB     FAIR      81  56  41 N12       30.09S
CLOVIS AIRPORT NOT AVBL

$$
NMZ028-029-538-162000-
SOUTHEAST PLAINS

CITY           SKY/WX    TMP DP  RH WIND       PRES   REMARKS
ROSWELL        FAIR      94  44  17 N9        30.02S
ARTESIA        FAIR      91  46  21 CALM      30.03S
CARLSBAD       FAIR      91  49  23 N7        30.01F
HOBBS          SUNNY     91  50  24 N13       30.03S


$$



USA.gov is the U.S. government's official web portal to all federal, state and local government web resources and services.